Location: Arcones
(41.1182°N, 3.7238°W)
Time: 05:13:41
(UTC+00:00)

IRAS Rocket - Pass Details

Date: 22 March 2026
Orbit: 845 x 876 km, 100.1° (Epoch: 15 April)

Event Time Altitude Azimuth Distance (km) Brightness Sun altitude
Rises 19:08:43 0° 143° (SE) 3,448 6.9 -8.3°
Reaches altitude 10° 19:11:12 10° 137° (SE) 2,511 6.2 -8.7°
Maximum altitude 19:16:25 43° 67° (ENE) 1,206 4.7 -9.7°
Drops below altitude 10° 19:21:38 10° 358° (N) 2,507 6.8 -10.6°
Sets 19:24:06 0° 352° (N) 3,443 7.6 -11.1°
